This is the latest recevied weather packets stored in our database for station/object W1QED. If no packets are shown the sender has not sent any weather packets the latest 10 day(s).
| Time | Temp. | Humidity | Pressure | Rain* | Wind** | Luminosity | Snow |
|---|---|---|---|---|---|---|---|
| 1777880451 | 5.56° C | 55% | 1010.7 hPa | 0 mm | - | - | - |
| 1777880153 | 5.56° C | 54% | 1010.6 hPa | 0 mm | - | - | - |
| 1777879850 | 5.56° C | 53% | 1010.6 hPa | 0 mm | - | - | - |
| 1777879549 | 5.56° C | 53% | 1010.5 hPa | 0 mm | - | - | - |
| 1777879248 | 5.56° C | 53% | 1010.6 hPa | 0 mm | - | - | - |
| 1777878956 | 5° C | 55% | 1010.4 hPa | 0 mm | - | - | - |
| 1777878647 | 5° C | 55% | 1010.5 hPa | 0 mm | - | - | - |
| 1777878348 | 5° C | 57% | 1010.5 hPa | 0 mm | - | - | - |
| 1777878105 | 5° C | 58% | 1010.4 hPa | 0 mm | - | - | - |
| 1777877744 | 5.56° C | 55% | 1010.4 hPa | 0 mm | - | - | - |
| 1777877442 | 5° C | 54% | 1010.4 hPa | 0 mm | - | - | - |
| 1777877149 | 4.44° C | 57% | 1010.5 hPa | 0 mm | - | - | - |
| 1777876840 | 4.44° C | 58% | 1010.6 hPa | 0 mm | - | - | - |
| 1777876539 | 4.44° C | 59% | 1010.7 hPa | 0 mm | - | - | - |
| 1777876239 | 4.44° C | 60% | 1010.6 hPa | 0 mm | - | - | - |
| 1777875938 | 4.44° C | 58% | 1010.5 hPa | 0 mm | - | - | - |
| 1777875637 | 4.44° C | 57% | 1010.7 hPa | 0 mm | - | - | - |
| 1777875337 | 5° C | 57% | 1010.7 hPa | 0 mm | - | - | - |
| 1777875036 | 5° C | 53% | 1010.7 hPa | 0 mm | - | - | - |
| 1777874734 | 5° C | 53% | 1010.7 hPa | 0 mm | - | - | - |
| 1777874433 | 5° C | 52% | 1010.7 hPa | 0 mm | - | - | - |
| 1777874133 | 4.44° C | 52% | 1010.8 hPa | 0 mm | - | - | - |
| 1777873831 | 5° C | 51% | 1010.8 hPa | 0 mm | - | - | - |
| 1777873541 | 4.44° C | 51% | 1010.8 hPa | 0 mm | - | - | - |
| 1777873228 | 4.44° C | 49% | 1010.8 hPa | 0 mm | - | - | - |
* Rain latest hour (hover to see other rain measurements)
** Current wind speed in m/s (hover to see current wind gust speed)